Time,TemperatureF,DewpointF,PressureIn,WindDirection,WindDirectionDegrees,WindSpeedMPH,WindSpeedGustMPH,Humidity,HourlyPrecipIn,Conditions,Clouds,dailyrainin,SoftwareType,DateUTC
2013-05-24 00:02:00,45.0,-99.9,30.11,West,274,-999.0,0.0,-999,-99.99,,,-99.99,,2013-05-24 08:02:00,
2013-05-24 00:11:00,45.0,-99.9,30.11,SW,219,-999.0,0.0,-999,-99.99,,,-99.99,,2013-05-24 08:11:00,
2013-05-24 00:22:00,45.0,-99.9,30.11,North,-999,-999.0,-999.0,-999,-99.99,,,-99.99,,2013-05-24 08:22:00,
2013-05-24 00:33:00,44.0,-99.9,30.11,SW,219,1.0,2.0,-999,-99.99,,,-99.99,,2013-05-24 08:33:00,
2013-05-24 00:42:00,44.0,-99.9,30.11,SSW,200,1.0,2.0,-999,-99.99,,,-99.99,,2013-05-24 08:42:00,
2013-05-24 00:52:00,44.0,-99.9,30.11,SSW,192,1.0,3.0,-999,-99.99,,,-99.99,,2013-05-24 08:52:00,
2013-05-24 01:02:00,43.0,-99.9,30.11,South,175,3.0,3.0,-999,-99.99,,,-99.99,,2013-05-24 09:02:00,
2013-05-24 01:11:00,44.0,-99.9,30.11,South,185,3.0,4.0,-999,-99.99,,,-99.99,,2013-05-24 09:11:00,
2013-05-24 01:22:00,44.0,-99.9,30.11,South,172,4.0,4.0,-999,-99.99,,,-99.99,,2013-05-24 09:22:00,
2013-05-24 01:33:00,44.0,-99.9,30.11,South,176,5.0,6.0,-999,-99.99,,,-99.99,,2013-05-24 09:33:00,
2013-05-24 01:42:00,44.0,-99.9,30.11,South,177,5.0,6.0,-999,-99.99,,,-99.99,,2013-05-24 09:42:00,
2013-05-24 01:53:00,43.0,-99.9,30.11,South,172,6.0,6.0,-999,-99.99,,,-99.99,,2013-05-24 09:53:00,
2013-05-24 02:03:00,43.0,-99.9,30.11,South,172,8.0,9.0,-999,-99.99,,,-99.99,,2013-05-24 10:03:00,
2013-05-24 02:12:00,43.0,-99.9,30.11,South,172,8.0,9.0,-999,-99.99,,,-99.99,,2013-05-24 10:12:00,
2013-05-24 02:23:00,42.0,-99.9,30.11,South,174,9.0,10.0,-999,-99.99,,,-99.99,,2013-05-24 10:23:00,
2013-05-24 02:33:00,42.0,-99.9,30.11,South,175,8.0,9.0,-999,-99.99,,,-99.99,,2013-05-24 10:33:00,
2013-05-24 02:42:00,42.0,-99.9,30.11,South,182,7.0,9.0,-999,-99.99,,,-99.99,,2013-05-24 10:42:00,
2013-05-24 02:53:00,42.0,-99.9,30.11,South,188,8.0,9.0,-999,-99.99,,,-99.99,,2013-05-24 10:53:00,
2013-05-24 03:02:00,41.0,-99.9,30.11,South,185,7.0,8.0,-999,-99.99,,,-99.99,,2013-05-24 11:02:00,
2013-05-24 03:12:00,41.0,-99.9,30.11,South,183,6.0,7.0,-999,-99.99,,,-99.99,,2013-05-24 11:12:00,
2013-05-24 03:22:00,41.0,-99.9,30.11,South,180,6.0,8.0,-999,-99.99,,,-99.99,,2013-05-24 11:22:00,
2013-05-24 03:32:00,41.0,-99.9,30.11,South,177,6.0,8.0,-999,-99.99,,,-99.99,,2013-05-24 11:32:00,
2013-05-24 03:42:00,42.0,-99.9,30.11,South,177,6.0,8.0,-999,-99.99,,,-99.99,,2013-05-24 11:42:00,
2013-05-24 03:52:00,42.0,-99.9,30.11,South,173,7.0,8.0,-999,-99.99,,,-99.99,,2013-05-24 11:52:00,
2013-05-24 04:02:00,42.0,-99.9,30.11,South,176,8.0,9.0,-999,-99.99,,,-99.99,,2013-05-24 12:02:00,
2013-05-24 04:12:00,42.0,-99.9,30.10,South,175,8.0,9.0,-999,-99.99,,,-99.99,,2013-05-24 12:12:00,
2013-05-24 04:22:00,42.0,-99.9,30.10,South,175,7.0,8.0,-999,-99.99,,,-99.99,,2013-05-24 12:22:00,
2013-05-24 04:33:00,42.0,-99.9,30.10,South,176,8.0,9.0,-999,-99.99,,,-99.99,,2013-05-24 12:33:00,
2013-05-24 04:42:00,42.0,-99.9,30.09,South,179,8.0,9.0,-999,-99.99,,,-99.99,,2013-05-24 12:42:00,
2013-05-24 04:52:00,42.0,-99.9,30.09,South,181,8.0,8.0,-999,-99.99,,,-99.99,,2013-05-24 12:52:00,
2013-05-24 05:02:00,42.0,-99.9,30.10,South,184,7.0,9.0,-999,-99.99,,,-99.99,,2013-05-24 13:02:00,
2013-05-24 05:11:00,42.0,-99.9,30.09,South,181,7.0,8.0,-999,-99.99,,,-99.99,,2013-05-24 13:11:00,
2013-05-24 05:22:00,42.0,-99.9,30.09,South,188,6.0,8.0,-999,-99.99,,,-99.99,,2013-05-24 13:22:00,
2013-05-24 05:32:00,42.0,-99.9,30.09,South,190,6.0,7.0,-999,-99.99,,,-99.99,,2013-05-24 13:32:00,
2013-05-24 05:42:00,42.0,-99.9,30.09,South,181,5.0,7.0,-999,-99.99,,,-99.99,,2013-05-24 13:42:00,
2013-05-24 05:52:00,42.0,-99.9,30.09,South,176,6.0,7.0,-999,-99.99,,,-99.99,,2013-05-24 13:52:00,
2013-05-24 06:02:00,42.0,-99.9,30.09,South,172,6.0,7.0,-999,-99.99,,,-99.99,,2013-05-24 14:02:00,
2013-05-24 06:11:00,42.0,-99.9,30.09,South,177,5.0,5.0,-999,-99.99,,,-99.99,,2013-05-24 14:11:00,
2013-05-24 06:22:00,42.0,-99.9,30.09,South,180,5.0,6.0,-999,-99.99,,,-99.99,,2013-05-24 14:22:00,
2013-05-24 06:32:00,42.0,-99.9,30.08,South,176,4.0,5.0,-999,-99.99,,,-99.99,,2013-05-24 14:32:00,
2013-05-24 06:42:00,42.0,-99.9,30.08,SSE,156,3.0,5.0,-999,-99.99,,,-99.99,,2013-05-24 14:42:00,
2013-05-24 06:52:00,43.0,-99.9,30.08,South,169,3.0,4.0,-999,-99.99,,,-99.99,,2013-05-24 14:52:00,
2013-05-24 07:02:00,44.0,-99.9,30.08,South,187,3.0,4.0,-999,-99.99,,,-99.99,,2013-05-24 15:02:00,
2013-05-24 07:11:00,44.0,-99.9,30.08,South,183,3.0,4.0,-999,-99.99,,,-99.99,,2013-05-24 15:11:00,
2013-05-24 07:22:00,44.0,-99.9,30.08,South,171,3.0,4.0,-999,-99.99,,,-99.99,,2013-05-24 15:22:00,
2013-05-24 07:33:00,46.0,-99.9,30.08,South,177,4.0,5.0,-999,-99.99,,,-99.99,,2013-05-24 15:33:00,
2013-05-24 07:43:00,46.0,-99.9,30.08,South,177,4.0,5.0,-999,-99.99,,,-99.99,,2013-05-24 15:43:00,
2013-05-24 07:53:00,45.0,-99.9,30.08,South,173,4.0,5.0,-999,-99.99,,,-99.99,,2013-05-24 15:53:00,
2013-05-24 08:03:00,45.0,-99.9,30.08,South,175,5.0,6.0,-999,-99.99,,,-99.99,,2013-05-24 16:03:00,
2013-05-24 08:13:00,45.0,-99.9,30.08,South,174,6.0,8.0,-999,-99.99,,,-99.99,,2013-05-24 16:13:00,
2013-05-24 08:22:00,45.0,-99.9,30.07,South,176,6.0,7.0,-999,-99.99,,,-99.99,,2013-05-24 16:22:00,
2013-05-24 08:33:00,46.0,-99.9,30.07,South,175,6.0,8.0,-999,-99.99,,,-99.99,,2013-05-24 16:33:00,
2013-05-24 08:42:00,45.0,-99.9,30.08,South,171,6.0,7.0,-999,-99.99,,,-99.99,,2013-05-24 16:42:00,
2013-05-24 08:52:00,47.0,-99.9,30.07,South,172,4.0,6.0,-999,-99.99,,,-99.99,,2013-05-24 16:52:00,
2013-05-24 09:02:00,46.0,-99.9,30.07,South,177,5.0,6.0,-999,-99.99,,,-99.99,,2013-05-24 17:02:00,
2013-05-24 09:12:00,47.0,-99.9,30.07,South,179,4.0,6.0,-999,-99.99,,,-99.99,,2013-05-24 17:12:00,
2013-05-24 09:22:00,46.0,-99.9,30.07,South,177,5.0,6.0,-999,-99.99,,,-99.99,,2013-05-24 17:22:00,
2013-05-24 09:32:00,46.0,-99.9,30.07,South,187,6.0,7.0,-999,-99.99,,,-99.99,,2013-05-24 17:32:00,
2013-05-24 09:42:00,46.0,-99.9,30.07,South,189,6.0,7.0,-999,-99.99,,,-99.99,,2013-05-24 17:42:00,
2013-05-24 09:52:00,45.0,-99.9,30.07,SSW,193,7.0,7.0,-999,-99.99,,,-99.99,,2013-05-24 17:52:00,
2013-05-24 10:01:00,45.0,-99.9,30.07,SSW,193,5.0,6.0,-999,-99.99,,,-99.99,,2013-05-24 18:01:00,
2013-05-24 10:12:00,45.0,-99.9,30.07,SSW,208,3.0,4.0,-999,-99.99,,,-99.99,,2013-05-24 18:12:00,
2013-05-24 10:22:00,46.0,-99.9,30.07,SSW,196,2.0,3.0,-999,-99.99,,,-99.99,,2013-05-24 18:22:00,
2013-05-24 10:32:00,45.0,-99.9,30.07,SSW,192,2.0,2.0,-999,-99.99,,,-99.99,,2013-05-24 18:32:00,
2013-05-24 10:42:00,46.0,-99.9,30.07,SSW,200,1.0,2.0,-999,-99.99,,,-99.99,,2013-05-24 18:42:00,
2013-05-24 10:52:00,46.0,-99.9,30.06,SSW,197,2.0,2.0,-999,-99.99,,,-99.99,,2013-05-24 18:52:00,
2013-05-24 11:02:00,45.0,-99.9,30.06,SSW,196,3.0,3.0,-999,-99.99,,,-99.99,,2013-05-24 19:02:00,
2013-05-24 11:11:00,45.0,-99.9,30.06,SSW,196,3.0,3.0,-999,-99.99,,,-99.99,,2013-05-24 19:11:00,
2013-05-24 11:22:00,46.0,-99.9,30.06,South,185,4.0,5.0,-999,-99.99,,,-99.99,,2013-05-24 19:22:00,
2013-05-24 11:32:00,46.0,-99.9,30.06,SSW,195,3.0,4.0,-999,-99.99,,,-99.99,,2013-05-24 19:32:00,
2013-05-24 11:42:00,46.0,-99.9,30.06,SSW,212,3.0,4.0,-999,-99.99,,,-99.99,,2013-05-24 19:42:00,
2013-05-24 11:52:00,47.0,-99.9,30.06,SW,216,2.0,3.0,-999,-99.99,,,-99.99,,2013-05-24 19:52:00,
2013-05-24 12:02:00,47.0,-99.9,30.06,SW,216,2.0,3.0,-999,-99.99,,,-99.99,,2013-05-24 20:02:00,
2013-05-24 12:12:00,47.0,-99.9,30.06,SW,216,2.0,3.0,-999,-99.99,,,-99.99,,2013-05-24 20:12:00,
2013-05-24 12:22:00,47.0,-99.9,30.06,SW,216,2.0,3.0,-999,-99.99,,,-99.99,,2013-05-24 20:22:00,
2013-05-24 12:32:00,46.0,-99.9,30.06,SSW,210,2.0,3.0,-999,-99.99,,,-99.99,,2013-05-24 20:32:00,
2013-05-24 12:42:00,47.0,-99.9,30.06,SW,227,1.0,2.0,-999,-99.99,,,-99.99,,2013-05-24 20:42:00,
2013-05-24 12:52:00,46.0,-99.9,30.05,SW,236,2.0,2.0,-999,-99.99,,,-99.99,,2013-05-24 20:52:00,
2013-05-24 13:01:00,46.0,-99.9,30.05,WSW,246,1.0,1.0,-999,-99.99,,,-99.99,,2013-05-24 21:01:00,
2013-05-24 13:12:00,47.0,-99.9,30.05,West,259,1.0,1.0,-999,-99.99,,,-99.99,,2013-05-24 21:12:00,
2013-05-24 13:22:00,47.0,-99.9,30.05,WSW,251,1.0,2.0,-999,-99.99,,,-99.99,,2013-05-24 21:22:00,
2013-05-24 13:33:00,48.0,-99.9,30.04,WNW,282,0.0,1.0,-999,-99.99,,,-99.99,,2013-05-24 21:33:00,
2013-05-24 13:43:00,48.0,-99.9,30.04,WNW,284,1.0,2.0,-999,-99.99,,,-99.99,,2013-05-24 21:43:00,
2013-05-24 13:53:00,49.0,-99.9,30.04,WNW,291,2.0,2.0,-999,-99.99,,,-99.99,,2013-05-24 21:53:00,
2013-05-24 14:03:00,47.0,-99.9,30.04,West,260,2.0,2.0,-999,-99.99,,,-99.99,,2013-05-24 22:03:00,
2013-05-24 14:12:00,49.0,-99.9,30.03,WNW,283,2.0,3.0,-999,-99.99,,,-99.99,,2013-05-24 22:12:00,
2013-05-24 14:22:00,49.0,-99.9,30.03,NW,304,1.0,3.0,-999,-99.99,,,-99.99,,2013-05-24 22:22:00,
2013-05-24 14:33:00,50.0,-99.9,30.04,WNW,283,1.0,3.0,-999,-99.99,,,-99.99,,2013-05-24 22:33:00,
2013-05-24 14:42:00,47.0,-99.9,30.03,WNW,290,3.0,4.0,-999,-99.99,,,-99.99,,2013-05-24 22:42:00,
2013-05-24 14:52:00,49.0,-99.9,30.03,NW,314,2.0,3.0,-999,-99.99,,,-99.99,,2013-05-24 22:52:00,
2013-05-24 15:02:00,47.0,-99.9,30.03,NNW,328,3.0,3.0,-999,-99.99,,,-99.99,,2013-05-24 23:02:00,
2013-05-24 15:11:00,47.0,-99.9,30.03,NNW,331,1.0,2.0,-999,-99.99,,,-99.99,,2013-05-24 23:11:00,
2013-05-24 15:22:00,48.0,-99.9,30.03,NW,309,1.0,2.0,-999,-99.99,,,-99.99,,2013-05-24 23:22:00,
2013-05-24 15:32:00,48.0,-99.9,30.03,WNW,299,1.0,2.0,-999,-99.99,,,-99.99,,2013-05-24 23:32:00,
2013-05-24 15:42:00,49.0,-99.9,30.03,West,271,-999.0,1.0,-999,-99.99,,,-99.99,,2013-05-24 23:42:00,
2013-05-24 15:52:00,47.0,-99.9,30.02,WNW,282,-999.0,1.0,-999,-99.99,,,-99.99,,2013-05-24 23:52:00,
2013-05-24 16:01:00,49.0,-99.9,30.03,WNW,290,-999.0,1.0,-999,-99.99,,,-99.99,,2013-05-25 00:01:00,
2013-05-24 16:12:00,48.0,-99.9,30.03,NW,319,2.0,2.0,-999,-99.99,,,-99.99,,2013-05-25 00:12:00,
2013-05-24 16:22:00,47.0,-99.9,30.02,North,4,1.0,1.0,-999,-99.99,,,-99.99,,2013-05-25 00:22:00,
2013-05-24 16:32:00,48.0,-99.9,30.02,NNW,334,1.0,2.0,-999,-99.99,,,-99.99,,2013-05-25 00:32:00,
2013-05-24 16:42:00,50.0,-99.9,30.02,West,274,2.0,3.0,-999,-99.99,,,-99.99,,2013-05-25 00:42:00,
2013-05-24 16:52:00,49.0,-99.9,30.02,WNW,284,1.0,2.0,-999,-99.99,,,-99.99,,2013-05-25 00:52:00,
2013-05-24 17:01:00,49.0,-99.9,30.02,NNW,343,-999.0,2.0,-999,-99.99,,,-99.99,,2013-05-25 01:01:00,
2013-05-24 17:11:00,51.0,-99.9,30.02,WNW,291,2.0,4.0,-999,-99.99,,,-99.99,,2013-05-25 01:11:00,
2013-05-24 17:22:00,51.0,-99.9,30.02,West,274,2.0,3.0,-999,-99.99,,,-99.99,,2013-05-25 01:22:00,
2013-05-24 17:32:00,51.0,-99.9,30.02,NW,307,2.0,3.0,-999,-99.99,,,-99.99,,2013-05-25 01:32:00,
2013-05-24 17:42:00,52.0,-99.9,30.02,WNW,282,2.0,5.0,-999,-99.99,,,-99.99,,2013-05-25 01:42:00,
2013-05-24 17:52:00,51.0,-99.9,30.01,NNW,342,2.0,3.0,-999,-99.99,,,-99.99,,2013-05-25 01:52:00,
2013-05-24 18:02:00,50.0,-99.9,30.02,WNW,285,3.0,6.0,-999,-99.99,,,-99.99,,2013-05-25 02:02:00,
2013-05-24 18:12:00,48.0,-99.9,30.01,WNW,289,6.0,9.0,-999,-99.99,,,-99.99,,2013-05-25 02:12:00,
2013-05-24 18:22:00,49.0,-99.9,30.01,WNW,283,9.0,12.0,-999,-99.99,,,-99.99,,2013-05-25 02:22:00,
2013-05-24 18:32:00,48.0,-99.9,30.01,NNW,346,3.0,9.0,-999,-99.99,,,-99.99,,2013-05-25 02:32:00,
2013-05-24 18:42:00,49.0,-99.9,30.01,NNW,331,4.0,7.0,-999,-99.99,,,-99.99,,2013-05-25 02:42:00,
2013-05-24 18:52:00,49.0,-99.9,30.01,NNW,328,4.0,8.0,-999,-99.99,,,-99.99,,2013-05-25 02:52:00,
2013-05-24 19:02:00,50.0,-99.9,30.01,NNW,329,2.0,7.0,-999,-99.99,,,-99.99,,2013-05-25 03:02:00,
2013-05-24 19:12:00,50.0,-99.9,30.01,NW,314,4.0,9.0,-999,-99.99,,,-99.99,,2013-05-25 03:12:00,
2013-05-24 19:22:00,50.0,-99.9,30.00,North,360,4.0,6.0,-999,-99.99,,,-99.99,,2013-05-25 03:22:00,
2013-05-24 19:33:00,49.0,-99.9,30.00,NNW,345,5.0,8.0,-999,-99.99,,,-99.99,,2013-05-25 03:33:00,
2013-05-24 19:43:00,49.0,-99.9,30.00,NW,305,8.0,11.0,-999,-99.99,,,-99.99,,2013-05-25 03:43:00,
2013-05-24 19:53:00,49.0,-99.9,30.00,NW,309,8.0,11.0,-999,-99.99,,,-99.99,,2013-05-25 03:53:00,
2013-05-24 20:03:00,51.0,-99.9,29.99,WNW,300,9.0,13.0,-999,-99.99,,,-99.99,,2013-05-25 04:03:00,
2013-05-24 20:13:00,50.0,-99.9,29.99,NW,306,9.0,12.0,-999,-99.99,,,-99.99,,2013-05-25 04:13:00,
2013-05-24 20:23:00,50.0,-99.9,29.99,North,358,2.0,5.0,-999,-99.99,,,-99.99,,2013-05-25 04:23:00,
2013-05-24 20:33:00,51.0,-99.9,29.99,NNW,332,2.0,5.0,-999,-99.99,,,-99.99,,2013-05-25 04:33:00,
2013-05-24 20:43:00,52.0,-99.9,30.00,NNW,337,0.0,3.0,-999,-99.99,,,-99.99,,2013-05-25 04:43:00,
2013-05-24 20:53:00,52.0,-99.9,29.99,NW,305,2.0,5.0,-999,-99.99,,,-99.99,,2013-05-25 04:53:00,
2013-05-24 21:02:00,52.0,-99.9,29.99,North,354,3.0,4.0,-999,-99.99,,,-99.99,,2013-05-25 05:02:00,
2013-05-24 21:12:00,52.0,-99.9,29.99,NNW,336,3.0,6.0,-999,-99.99,,,-99.99,,2013-05-25 05:12:00,
2013-05-24 21:22:00,54.0,-99.9,29.99,NW,318,5.0,8.0,-999,-99.99,,,-99.99,,2013-05-25 05:22:00,
2013-05-24 21:32:00,53.0,-99.9,29.99,NW,323,4.0,7.0,-999,-99.99,,,-99.99,,2013-05-25 05:32:00,
2013-05-24 21:43:00,53.0,-99.9,29.99,NNW,330,3.0,7.0,-999,-99.99,,,-99.99,,2013-05-25 05:43:00,
2013-05-24 21:52:00,53.0,-99.9,29.99,NNW,330,0.0,2.0,-999,-99.99,,,-99.99,,2013-05-25 05:52:00,
2013-05-24 22:02:00,55.0,-99.9,29.99,NW,319,2.0,4.0,-999,-99.99,,,-99.99,,2013-05-25 06:02:00,
2013-05-24 22:12:00,53.0,-99.9,29.99,SE,136,-999.0,1.0,-999,-99.99,,,-99.99,,2013-05-25 06:12:00,
2013-05-24 22:22:00,54.0,-99.9,29.99,SSW,201,1.0,2.0,-999,-99.99,,,-99.99,,2013-05-25 06:22:00,
2013-05-24 22:32:00,49.0,-99.9,29.99,South,184,8.0,9.0,-999,-99.99,,,-99.99,,2013-05-25 06:32:00,
2013-05-24 22:42:00,46.0,-99.9,29.99,South,173,9.0,11.0,-999,-99.99,,,-99.99,,2013-05-25 06:42:00,
2013-05-24 22:52:00,45.0,-99.9,29.99,South,176,9.0,11.0,-999,-99.99,,,-99.99,,2013-05-25 06:52:00,
2013-05-24 23:02:00,44.0,-99.9,29.99,South,171,11.0,12.0,-999,-99.99,,,-99.99,,2013-05-25 07:02:00,
2013-05-24 23:11:00,44.0,-99.9,30.00,South,173,12.0,13.0,-999,-99.99,,,-99.99,,2013-05-25 07:11:00,
2013-05-24 23:22:00,45.0,-99.9,30.00,South,172,11.0,12.0,-999,-99.99,,,-99.99,,2013-05-25 07:22:00,
2013-05-24 23:32:00,45.0,-99.9,30.00,South,173,11.0,13.0,-999,-99.99,,,-99.99,,2013-05-25 07:32:00,
2013-05-24 23:42:00,45.0,-99.9,30.00,South,174,11.0,13.0,-999,-99.99,,,-99.99,,2013-05-25 07:42:00,
2013-05-24 23:52:00,45.0,-99.9,30.00,South,173,11.0,13.0,-999,-99.99,,,-99.99,,2013-05-25 07:52:00,